This demonstration page uses our WeatherBlox Daily Observations layout. Learn more.

Left ArrowRight Arrow

Hourly Observations for February 27, 2016

Temp ( °F °C ) Dew Point ( °F °C ) Humidity (%) Winds ( mph kmh ) Pressure ( in mb ) Visibility ( mi km ) Precip ( " mm )
12:54 am 00:54 Clear 28 -2.2 22 -5.6 78 78 S 5 7 30.10 1019 10 16 0.00 0.00
1:54 am 01:54 Clear 30 -1.1 22 -5.6 72 72 Calm 30.09 1019 10 16 0.00 0.00
2:54 am 02:54 Clear 28 -2.2 22 -5.6 78 78 Calm 30.07 1018 10 16 0.00 0.00
3:54 am 03:54 Clear 27 -2.8 21 -6.1 78 78 S 3 6 30.05 1018 10 16 0.00 0.00
4:54 am 04:54 Clear 28 -2.2 22 -5.6 78 78 S 3 6 30.04 1017 10 16 0.00 0.00
5:54 am 05:54 Clear 29 -1.7 22 -5.6 75 75 SSE 3 6 30.03 1017 10 16 0.00 0.00
6:54 am 06:54 Clear 30 -1.1 23 -5 75 75 SSE 5 7 30.01 1016 10 16 0.00 0.00
7:54 am 07:54 Sunny 31 -0.6 26 -3.3 82 82 SSE 5 7 30.01 1016 10 16 0.00 0.00
8:54 am 08:54 Sunny 41 5 30 -1.1 65 65 SE 6 9 29.98 1015 10 16 0.00 0.00
9:54 am 09:54 Sunny 54 12.2 27 -2.8 35 35 SW 14 22 29.94 1014 10 16 0.00 0.00
10:54 am 10:54 Sunny 62 16.7 27 -2.8 26 26 SW 17 28 29.91 1013 10 16 0.00 0.00
11:54 am 11:54 Sunny 66 18.9 27 -2.8 23 23 SW 18 30 29.88 1012 10 16 0.00 0.00
12:54 pm 12:54 Sunny 71 21.7 28 -2.2 20 20 SSW 22 35 29.81 1010 10 16 0.00 0.00
1:54 pm 13:54 Sunny 74 23.3 28 -2.2 18 18 SW 24 39 29.76 1008 10 16 0.00 0.00
2:54 pm 14:54 Sunny 75 23.9 29 -1.7 18 18 SW 28 44 29.73 1007 10 16 0.00 0.00
3:54 pm 15:54 Sunny 76 24.4 28 -2.2 17 17 SW 29 46 29.70 1006 10 16 0.00 0.00
4:54 pm 16:54 Sunny 76 24.4 29 -1.7 18 18 SSW 18 30 29.67 1005 10 16 0.00 0.00
5:54 pm 17:54 Sunny 71 21.7 31 -0.6 23 23 SSW 16 26 29.65 1004 10 16 0.00 0.00
6:54 pm 18:54 Clear 67 19.4 29 -1.7 24 24 S 13 20 29.65 1004 10 16 0.00 0.00
7:54 pm 19:54 Clear 66 18.9 29 -1.7 25 25 S 20 31 29.63 1004 10 16 0.00 0.00
8:54 pm 20:54 Clear 63 17.2 29 -1.7 28 28 SSW 22 35 29.61 1003 10 16 0.00 0.00
9:54 pm 21:54 Clear 61 16.1 30 -1.1 31 31 SSW 21 33 29.60 1002 10 16 0.00 0.00
10:54 pm 22:54 Clear 61 16.1 31 -0.6 32 32 SSW 23 37 29.58 1002 10 16 0.00 0.00
11:54 pm 23:54 Clear 59 15 32 0 36 36 SSW 21 33 29.57 1001 10 16 0.00 0.00

Powered by AerisWeather